ARABSAT-7B (BADR-8)

Last updated on Mon Oct 14 2024 00:02:42 GMT+0000 (Coordinated Universal Time)

1 56757U 23075A 24287.48309446 .00000143 00000+0 00000+0 0 9994 2 56757 0.0735 25.8541 0001573 320.9776 235.6331 1.00270973 5009
UTC large
Height (km)
Speed (km/s)
/
Latitude / Longitude
Inclination (degrees)
Orbital Period (minutes)
Azimuth
Elevation
Range (km)
Doppler Factor

Next 0 passes for location: London (51.5072 / 0.1276)

Sorry there are no passes over London.